New Bern, NC

6:41 AM EST on February 13, 2016 (GMT -0500)
Craven County Regional

Weather History for KEWN - September, 2013

Change the Weather History Date:

Friday, September 27, 2013

  Actual Average Record
Temperature  
Mean Temperature 70 °F 71 °F  
Max Temperature 77 °F 80 °F 94 °F (1986)
Min Temperature 62 °F 61 °F 48 °F (2001)
Degree Days  
Heating Degree Days 0 1  
Month to date heating degree days 2 2  
Since 1 July heating degree days 2 2  
Cooling Degree Days 5 6  
Month to date cooling degree days 256 256  
Year to date cooling degree days 1873 1785  
Growing Degree Days 18 (Base 50)    
Moisture  
Dew Point 57 °F    
Average Humidity 67    
Maximum Humidity 90    
Minimum Humidity 43    
Precipitation  
Precipitation 0.00 in 0.19 in 6.79 in (1985)
Month to date precipitation 3.25 5.36  
Year to date precipitation 32.39 42.16  
Snow  
Snow 0.00 in - - ()
Month to date snowfall 0.0  
Since 1 July snowfall 0.0  
Snow Depth 0.00 in    
Sea Level Pressure  
Sea Level Pressure 30.08 in    
Wind  
Wind Speed 10 mph (NNE)    
Max Wind Speed 20 mph    
Max Gust Speed 25 mph    
Visibility 10 miles    
Events      
T = Trace of Precipitation, MM = Missing Value Source: NWS Daily Summary

Daily Weather History Graph

Daily Weather History Graph

Search for Another Location

Airport or City:

Trip Planner

Search our weather history database for the weather conditions in past years. The results will help you decide how hot, cold, wet, or windy it might be!

Date:

Astronomy

Sep. 27, 2013 Rise Set
Actual Time 7:00 AM EDT 6:57 PM EDT
Civil Twilight 6:34 AM EDT 7:22 PM EDT
Nautical Twilight 6:05 AM EDT 7:52 PM EDT
Astronomical Twilight 5:35 AM EDT 8:21 PM EDT
Moon 12:06 AM EDT (9/27) 2:22 PM EDT (9/27)
Length of Visible Light 12h 47m
Length of Day
11h 57m
Last Quarter, 45% of the Moon is Illuminated
Sep 27
Last Quarter
Oct 4
New
Oct 11
First Quarter
Oct 18
Full
Oct 26
Last Quarter

Hourly Weather History & Observations

Time (EDT) Temp. Dew Point Humidity Pressure Visibility Wind Dir Wind Speed Gust Speed Precip Events Conditions
12:54 AM 64.9 °F 60.1 °F 84% 30.01 in 10.0 mi NNE 8.1 mph - N/A   Clear
1:54 AM 64.0 °F 60.1 °F 87% 30.01 in 10.0 mi NNE 8.1 mph - N/A   Clear
2:54 AM 63.0 °F 59.0 °F 87% 30.01 in 10.0 mi NNE 6.9 mph - N/A   Clear
3:54 AM 62.1 °F 59.0 °F 90% 30.00 in 10.0 mi NNE 8.1 mph - N/A   Clear
4:54 AM 62.1 °F 59.0 °F 90% 30.01 in 10.0 mi NNE 8.1 mph - N/A   Clear
5:54 AM 62.1 °F 59.0 °F 90% 30.02 in 10.0 mi North 6.9 mph - N/A   Clear
6:54 AM 62.1 °F 59.0 °F 90% 30.04 in 10.0 mi NNE 9.2 mph - N/A   Clear
7:54 AM 64.0 °F 60.1 °F 87% 30.06 in 10.0 mi NNE 8.1 mph - N/A   Clear
8:54 AM 66.9 °F 62.1 °F 84% 30.09 in 10.0 mi NNE 9.2 mph - N/A   Clear
9:54 AM 71.1 °F 60.1 °F 68% 30.10 in 10.0 mi NE 13.8 mph 25.3 mph N/A   Partly Cloudy
10:54 AM 73.9 °F 59.0 °F 59% 30.12 in 10.0 mi NE 15.0 mph - N/A   Partly Cloudy
11:54 AM 75.9 °F 57.0 °F 52% 30.12 in 10.0 mi NE 13.8 mph - N/A   Partly Cloudy
12:54 PM 75.0 °F 55.9 °F 51% 30.11 in 10.0 mi NNE 12.7 mph 20.7 mph N/A   Mostly Cloudy
1:54 PM 75.0 °F 55.0 °F 50% 30.10 in 10.0 mi NE 11.5 mph 18.4 mph N/A   Mostly Cloudy
2:54 PM 75.9 °F 51.1 °F 42% 30.09 in 10.0 mi NE 12.7 mph 21.9 mph N/A   Mostly Cloudy
3:54 PM 75.0 °F 53.1 °F 46% 30.08 in 10.0 mi NE 15.0 mph - N/A   Scattered Clouds
4:54 PM 75.0 °F 54.0 °F 48% 30.09 in 10.0 mi NNE 10.4 mph - N/A   Mostly Cloudy
5:54 PM 71.1 °F 55.0 °F 57% 30.10 in 10.0 mi NNE 13.8 mph - N/A   Mostly Cloudy
6:54 PM 68.0 °F 55.9 °F 65% 30.11 in 10.0 mi NNE 6.9 mph - N/A   Partly Cloudy
7:36 PM 66.2 °F 55.4 °F 68% 30.12 in 10.0 mi NNE 9.2 mph - N/A   Partly Cloudy
7:54 PM 66.0 °F 57.0 °F 73% 30.12 in 10.0 mi NNE 8.1 mph - N/A   Partly Cloudy
8:54 PM 66.9 °F 57.9 °F 73% 30.14 in 10.0 mi NNE 8.1 mph - N/A   Overcast
9:54 PM 66.9 °F 57.0 °F 70% 30.15 in 10.0 mi NNE 10.4 mph - N/A   Overcast
10:54 PM 64.9 °F 57.0 °F 75% 30.15 in 10.0 mi NNE 8.1 mph - N/A   Overcast
11:54 PM 64.9 °F 57.0 °F 75% 30.15 in 10.0 mi NNE 9.2 mph - N/A   Overcast